パンスターズ彗星

P/2020 V3 ( PanSTARRS )

English version
Home page
Updated on July 3, 2021

---------------------------------------------------------------------

・ プロフィール

発見日 2020年11月10日
発見光度 20.6等
発見者 Pan-STARRS 1 telescope (Haleakala)

・ 写真集

・ 軌道要素

Epoch 2021 July 5.0 TT = JDT 2459400.5
T 2021 Feb. 8.56922 TT                                  Rudenko
q   6.2302674            (2000.0)            P               Q
n   0.04073717     Peri.  249.31803     +0.06536674     -0.99028987
a   8.3651830      Node   198.27596     +0.99730105     +0.06895395
e   0.2552145      Incl.   23.03183     +0.03343352     -0.12071177
P  24.2
From 107 observations 2020 Oct. 17-2021 Mar. 11, mean residual 0".4.

・ 光度変化

        m1 = 8.5 + 5 logΔ + 10.0 log r

---------------------------------------------------------------------

軌道要素はM.P.E.C. 2021-N06に掲載されたものです。
光度グラフはComet for Windowsで作成したものです。

---------------------------------------------------------------------

Copyright(C) Seiichi Yoshida (comet@aerith.net). All rights reserved.